Regional Weather Roundup
Issued by NWS Midland/Odessa, TX

Skip options and go directly to product.
Home | Oldest Version | Previous Version | Current Version | All | Text Only | Save Text | Print | Product List | Glossary Off

Skip product version selection by date and time.   

513
ASUS44 KMAF 291310
RWRMAF
MIDLAND AREA WEATHER ROUNDUP
NATIONAL WEATHER SERVICE MIDLAND TX
800 AM CDT WED JUL 29 2015

...IN SOUTHWEST TEXAS AND SOUTHEAST NEW MEXICO...

CITY           SKY/WX    TMP DP  RH WIND       PRES   REMARKS
ALPINE         CLOUDY    70  64  81 CALM      30.25R
ANDREWS        FAIR      72  62  69 CALM      30.13R
ARTESIA        MOCLDY    72  70  94 VRB5      30.17R
BIG SPRING     SUNNY     75  61  61 S6        30.12R
CARLSBAD       MOCLDY    73  65  75 NW5       30.13R
DRYDEN           N/A     78  67  68 VRB3      30.04R
FORT STOCKTON  CLEAR     72  65  78 SW9       30.09R
GUAD PASS      CLOUDY    64  62  93 NE21      30.25S
HOBBS          SUNNY     70  63  78 N9        30.17R
MARFA          CLOUDY    68  63  83 NE10      30.22R
MIDLAND AIRPK  SUNNY     80  62  53 SE3       30.11R
MIDLAND INTL   SUNNY     79  62  56 S6        30.10R
ODESSA         SUNNY     77  60  55 E3        30.11R
PECOS          CLEAR     75  64  66 NW12      30.07S
PRESIDIO       FAIR      79  62  55 NW6       30.06R
SEMINOLE       SUNNY     69  61  76 N8        30.16R
SNYDER         SUNNY     75  64  67 S5        30.09R
WINK           CLEAR     76  62  62 N9        30.09R
$$
...OTHER STATIONS IN TEXAS...

CITY           SKY/WX    TMP DP  RH WIND       PRES   REMARKS
ABILENE        MOSUNNY   78  69  73 CALM      30.06R
AMARILLO       SUNNY     68  64  87 N9        30.20R
AUSTIN         PTSUNNY   76  75  97 CALM      30.04R
BROWNSVILLE    SUNNY     81  79  94 SE7       29.97R FOG
CORPUS CHRISTI CLOUDY    81  78  91 SE7       29.99R FOG
DALLAS FTW     MOSUNNY   81  69  67 S10       30.02R
DEL RIO        SUNNY     77  71  82 E7        30.00R
EL PASO        CLOUDY    73  65  75 NE6       30.16S
HOUSTON INT    MOSUNNY   80  78  94 CALM      30.04R
LUBBOCK        MOSUNNY   71  63  75 N9        30.15R
SAN ANGELO     SUNNY     77  68  73 S5        30.05R
SAN ANTONIO    PTSUNNY   79  73  82 S7        30.03R
WACO           SUNNY     78  73  84 S10       30.03S
WICHITA FALLS  NOT AVBL
$$
...OTHER LOCATIONS IN NEW MEXICO...

CITY           SKY/WX    TMP DP  RH WIND       PRES   REMARKS
ALAMAGORDO     CLOUDY    68  63  83 NE8       30.21R
ALBUQUERQUE    CLOUDY    72  55  55 CALM      30.29R
CANNON AFB     PTSUNNY   67  65  94 NE6       30.22R
CLOVIS         MOSUNNY   66  63  88 N5        30.23S
HOLLOMAN AFB   MOCLDY    69  66  90 E5        30.19R
ROSWELL        MOCLDY    70  66  87 NE6       30.16R
RUIDOSO          N/A    N/A N/A N/A MISG        N/A
SANTA FE       CLOUDY    64  53  67 S6        30.34R
TRUTH OR CONSE CLOUDY    69  64  84 CALM      30.23R
TUCUMCARI      PTSUNNY   67  64  90 CALM      30.21R
$$

USA.gov is the U.S. government's official web portal to all federal, state and local government web resources and services.